Location: Stockholm
(59.3330°N, 18.0500°E)
Time: 10:04:42
(UTC+01:00)

FENGYUN 1C DEB - Pass Details

Date: 11 December 2023
Orbit: 841 x 915 km, 98.8° (Epoch: 27 February)

Event Time Altitude Azimuth Distance (km) Brightness Sun altitude
Exits shadow 18:43:02 17° 6° (N) 2,010 ? -27.5°
Drops below altitude 10° 18:44:39 10° 353° (N) 2,485 ? -27.7°
Sets 18:47:21 0° 342° (NNW) 3,432 ? -28.1°
